Retour au catalogue

CZ-6A DEB

ActifPO
NORAD 56267·DEBRIS·🇨🇳 China

Lancé Nov 11, 2022 depuis Taiyuan Satellite Launch Center

Loading…

Prochains Passages (prochaines 24 heures)

TLE

FraisSource: Space-Track

Époque: Sep 12, 2026, 17:11 UTC

1 56267U 22151ACK 26255.71615017  .00036686  00000-0  25222-2 0  9999
2 56267  98.6400 351.7219 0037182 287.0930  72.6222 15.05258766192292

Suivez CZ-6A DEB en temps réel avec AllMySat

Download on the App Store